Location: Lincolnton
(35.4660°N, 81.2500°W)
Time: 02:51:50
(UTC-05:00)

Hubble Space Telescope - Visible Passes

Search period start: 23 January 2018 00:00
Search period end: 02 February 2018 00:00
Orbit: 537 x 541 km, 28.5° (Epoch: 22 January)

Date Brightness Start Highest point End Pass type
(mag) Time Alt. Az. Time Alt. Az. Time Alt. Az.
23 Jan 2.9 18:54:30 10° SSW 18:57:07 16° SSE 18:58:58 13° SE visible
23 Jan 3.9 20:34:14 10° SW 20:34:20 11° SW 20:34:20 11° SW visible
24 Jan 2.7 18:43:49 10° SSW 18:46:46 19° SSE 18:49:22 11° ESE visible
24 Jan 3.5 20:23:51 10° WSW 20:24:44 15° SW 20:24:44 15° SW visible
25 Jan 2.6 18:33:13 10° SW 18:36:25 22° SSE 18:39:37 10° ESE visible
25 Jan 3.1 20:13:31 10° WSW 20:15:07 20° SW 20:15:07 20° SW visible
26 Jan 2.5 18:22:43 10° SW 18:26:05 24° S 18:29:27 10° ESE visible
26 Jan 2.7 20:03:13 10° WSW 20:05:31 25° SW 20:05:31 25° SW visible
27 Jan 2.4 18:12:16 10° SW 18:15:45 27° S 18:19:14 10° ESE visible
27 Jan 2.3 19:52:56 10° WSW 19:55:55 28° SSW 19:55:55 28° SSW visible
28 Jan 2.2 19:42:40 10° WSW 19:46:14 28° S 19:46:21 28° S visible
29 Jan 2.3 19:32:25 10° WSW 19:35:54 26° S 19:36:50 24° SSE visible
30 Jan 2.6 19:22:14 10° WSW 19:25:34 24° SSW 19:27:23 18° SSE visible
31 Jan 2.8 19:12:05 10° WSW 19:15:13 21° SSW 19:18:00 12° SSE visible
01 Feb 3.1 19:02:00 10° WSW 19:04:52 18° SSW 19:07:44 10° SSE visible
